Location: Skymont Scout Reservation
(35.4344°N, 85.8742°W)
Time: 01:38:48
(UTC-06:00)

ISS - All Passes

Search period start: 28 February 2017 00:00
Search period end: 10 March 2017 00:00
Orbit: 399 x 408 km, 51.6° (Epoch: 28 February)

Date Brightness Start Highest point End Pass type
(mag) Time Alt. Az. Time Alt. Az. Time Alt. Az.
28 Feb - 05:54:54 10° SW 05:58:10 73° SE 06:01:28 10° NE daylight
28 Feb - 07:33:03 10° WNW 07:34:57 14° NNW 07:36:52 10° N daylight
28 Feb - 12:25:28 10° NNW 12:28:12 23° NNE 12:30:54 10° E daylight
28 Feb - 14:01:44 10° WNW 14:04:39 30° SW 14:07:34 10° SSE daylight
01 Mar - 05:02:44 10° SSW 05:05:42 32° SE 05:08:40 10° ENE visible
01 Mar - 06:39:29 10° W 06:42:11 23° NNW 06:44:53 10° NNE daylight
01 Mar - 11:33:28 10° N 11:35:25 15° NNE 11:37:21 10° ENE daylight
01 Mar - 13:08:55 10° NW 13:12:11 69° SW 13:15:26 10° SE daylight
02 Mar - 04:11:16 10° SSE 04:13:17 15° SE 04:15:19 10° E visible
02 Mar - 05:46:22 10° WSW 05:49:29 40° NW 05:52:38 10° NE visible
02 Mar - 12:16:23 10° NW 12:19:37 53° NE 12:22:49 10° ESE daylight
02 Mar - 13:54:30 10° WSW 13:55:42 12° SW 13:56:53 10° SSW daylight
03 Mar - 04:53:35 10° SW 04:56:51 87° NW 05:00:10 10° NE visible
03 Mar - 06:32:13 10° NW 06:33:45 13° NNW 06:35:17 10° N daylight
03 Mar - 11:24:03 10° NNW 11:26:56 27° NE 11:29:48 10° E daylight
03 Mar - 13:00:35 10° WNW 13:03:18 24° SW 13:06:01 10° S daylight
04 Mar - 04:01:13 10° SSW 04:04:19 41° SE 04:07:27 10° ENE visible
04 Mar - 05:38:26 10° W 05:40:54 19° NNW 05:43:23 10° NNE visible
04 Mar - 10:31:55 10° NNW 10:34:09 17° NNE 10:36:23 10° ENE daylight
04 Mar - 12:07:37 10° WNW 12:10:49 53° SW 12:14:00 10° SSE daylight
05 Mar - 03:09:26 10° S 03:11:52 19° SE 03:14:18 10° E visible
05 Mar - 04:45:07 10° WSW 04:48:08 33° NW 04:51:10 10° NNE visible
05 Mar - 09:40:13 10° N 09:41:16 11° NNE 09:42:18 10° NE daylight
05 Mar - 11:14:58 10° NW 11:18:14 68° NE 11:21:30 10° SE daylight
06 Mar - 03:52:12 10° SW 03:55:27 68° NW 03:58:44 10° NE visible
06 Mar - 05:31:24 10° NW 05:32:26 11° NNW 05:33:28 10° N visible
06 Mar - 10:22:31 10° NNW 10:25:33 33° NE 10:28:34 10° ESE daylight
06 Mar - 11:59:24 10° W 12:01:50 19° SW 12:04:14 10° S daylight
07 Mar - 02:59:39 10° SSW 03:02:51 53° SE 03:06:04 10° ENE visible
07 Mar - 04:37:17 10° WNW 04:39:31 17° NNW 04:41:46 10° NNE visible
07 Mar - 09:30:16 10° NNW 09:32:46 19° NNE 09:35:14 10° E daylight
07 Mar - 11:06:12 10° WNW 11:09:20 41° SW 11:12:25 10° SSE daylight
08 Mar - 02:07:37 10° S 02:10:19 24° SE 02:13:02 10° ENE night (unlit)
08 Mar - 03:43:49 10° W 03:46:41 27° NW 03:49:34 10° NNE visible
08 Mar - 08:38:20 10° N 08:39:51 13° NNE 08:41:23 10° NE daylight
08 Mar - 10:13:26 10° NW 10:16:44 87° NE 10:20:01 10° SE daylight
09 Mar - 01:16:40 10° SSE 01:17:51 12° SE 01:19:04 10° ESE night (unlit)
09 Mar - 02:50:44 10° WSW 02:53:56 53° NW 02:57:10 10° NE visible
09 Mar - 09:20:54 10° NW 09:24:03 40° NE 09:27:09 10° ESE daylight
09 Mar - 10:58:12 10° W 11:00:13 15° SW 11:02:14 10° SSW daylight
